Dewpoint
66 66 66 66 65 64 63 63 62 62 62 62 62 62 62 62 62 62 62 62 62 62 62 61 61 62 62 63 64 65 66 66 66 65 64 63 62 62 61 61 62 62 63 64 64 65 65 65 63 61 59 58 55 52 49 48 48 49 48 52 52 52 50 54 56 57 57 57 58 59 60 61 62 63 63 62 62 62 62 61 61 61 62 63 64 64 65 64 64 63 62 62 61 61 61 61 62 62 62 62 62 62 63
66 66 66 65 65 64 63 62 62 62 62 62 62 62 62 62 62 62 63 64 64 63 63 62 62 62 62 62 64 65 66 66 66 64 63 62 62 61 61 61 62 62 62 63 64 65 65 64 62 60 59 59 57 55 51 49 48 48 48 49 51 52 53 57 58 57 57 57 58 59 61 62 63 63 63 63 63 62 62 62 61 61 62 62 63 64 64 64 64 64 63 62 62 61 61 61 61 61 61 61 62 62 62
66 66 66 65 65 64 63 63 63 62 62 62 62 62 62 62 62 63 64 64 65 64 64 63 62 62 62 62 63 64 65 65 64 64 63 62 62 61 61 61 62 62 62 63 64 65 65 64 62 60 58 58 58 57 54 52 50 48 48 49 51 52 56 59 60 59 58 58 58 60 61 62 63 63 63 63 63 62 62 62 62 62 62 62 63 63 64 65 65 64 64 63 63 62 62 62 61 61 61 61 61 61 61
66 66 66 66 65 65 64 64 64 63 63 63 63 62 62 62 63 63 64 65 65 65 64 63 63 62 62 62 62 62 63 63 63 63 63 62 62 62 61 62 62 62 63 63 64 65 65 63 61 59 57 57 57 57 56 54 52 51 50 51 52 54 58 61 61 60 59 59 59 60 61 61 62 63 63 63 63 62 62 62 62 62 62 62 62 63 64 65 65 65 65 64 64 63 63 62 62 61 61 61 61 61 61
66 66 66 66 66 65 65 65 64 64 64 63 63 62 62 63 63 64 65 65 65 65 64 63 63 62 62 62 62 62 62 63 63 63 63 63 62 62 62 62 63 63 64 64 65 65 64 62 60 58 56 55 55 54 54 55 54 53 52 52 52 55 60 61 61 60 60 60 60 60 61 61 62 62 62 62 62 62 62 62 63 63 62 62 62 63 64 65 65 66 65 65 64 64 63 63 62 62 62 62 61 61 61
66 66 66 66 66 65 65 65 65 64 64 63 63 63 62 63 63 64 65 64 64 64 63 63 62 62 62 62 62 62 62 63 63 63 63 63 63 63 63 63 63 64 64 65 66 66 65 62 60 58 57 56 55 54 53 53 53 52 52 52 53 56 60 60 60 60 60 60 60 60 61 61 61 62 62 62 62 62 62 62 63 63 63 63 63 63 63 64 65 66 66 65 65 64 64 64 63 63 62 62 62 61 61
66 66 66 65 65 65 65 64 64 64 63 63 63 63 63 63 64 64 64 64 63 63 63 62 62 61 61 61 62 62 62 63 64 64 64 64 64 63 63 64 64 65 65 66 66 66 65 62 61 60 59 58 57 56 54 53 52 51 51 51 54 58 60 60 60 60 61 61 61 61 61 61 61 62 62 62 62 62 62 63 63 63 63 63 63 63 63 64 65 66 66 66 65 65 65 64 64 63 63 63 62 62 62
66 65 65 65 65 65 65 65 64 64 63 63 63 63 63 64 64 64 64 63 63 63 62 62 61 61 61 61 62 62 62 63 64 64 64 64 64 64 64 64 65 65 66 66 66 66 66 64 62 61 60 60 59 57 56 55 53 52 51 51 54 57 59 60 60 60 60 61 61 61 61 61 61 62 62 62 62 62 62 62 63 63 64 64 64 63 63 64 65 66 66 66 66 65 65 65 64 64 64 63 63 63 63
65 65 65 65 65 65 65 65 64 64 64 64 64 64 64 64 64 64 64 64 63 63 62 62 62 62 62 62 62 62 63 63 64 64 65 65 65 65 65 65 65 66 66 66 66 66 66 64 63 61 61 60 59 58 58 57 55 54 52 52 53 56 59 60 60 60 60 61 61 61 62 62 62 62 62 62 62 62 62 62 63 63 64 64 64 64 64 64 65 65 66 66 66 66 65 65 65 65 64 64 64 64 63
64 65 65 65 65 65 65 65 65 64 64 64 64 64 65 65 64 64 64 64 63 63 63 63 62 62 62 63 63 63 63 63 64 64 64 65 65 65 65 65 66 66 66 66 66 66 66 65 63 62 61 61 60 59 59 58 57 56 54 55 56 58 60 60 60 60 60 61 61 61 62 62 62 62 62 62 62 62 62 62 63 63 64 64 64 64 64 64 64 65 66 66 66 66 66 65 65 65 65 65 64 64 64
64 64 65 65 65 65 65 64 64 64 64 65 65 65 65 65 64 64 64 63 63 63 63 63 63 63 63 63 63 63 63 63 64 64 64 64 65 65 65 66 66 66 66 66 66 66 66 65 64 62 62 61 61 60 59 58 57 57 56 57 58 60 60 60 60 60 60 61 61 61 61 62 62 62 62 62 62 62 62 62 63 63 63 64 64 64 64 64 64 65 65 66 66 66 66 66 65 65 65 65 65 64 64
64 65 65 65 65 64 64 64 64 64 64 64 64 64 64 64 64 64 63 63 63 63 63 63 64 64 64 64 64 64 64 64 64 64 64 64 64 65 65 66 66 66 66 66 66 66 66 65 64 63 62 61 60 60 58 57 57 56 56 58 59 60 60 60 60 60 60 60 61 61 61 62 62 62 62 62 62 63 63 62 63 63 63 63 64 64 64 64 64 64 65 65 66 66 66 66 66 66 65 65 65 65 64
65 66 66 66 65 64 64 64 63 64 64 63 63 63 63 63 63 63 63 63 63 63 63 64 64 64 64 64 64 64 64 64 64 64 64 64 64 65 65 66 66 66 66 66 66 66 64 63 63 62 61 61 60 59 58 57 57 56 56 59 61 61 61 60 60 60 60 60 61 61 61 62 62 62 63 63 63 63 63 63 63 63 63 63 63 64 64 64 64 65 65 65 65 66 66 66 66 66 66 65 65 65 64
66 66 66 66 66 65 64 64 64 64 64 63 63 63 63 63 63 63 63 63 63 63 64 64 64 64 64 64 65 65 65 65 65 65 65 65 65 65 65 65 66 66 66 66 65 64 63 62 61 61 60 59 59 58 58 57 56 56 58 61 61 61 61 61 61 61 61 61 61 61 61 62 62 63 63 63 63 63 63 63 63 63 63 63 63 63 64 64 64 64 65 65 65 65 66 66 66 66 66 66 65 65 65
66 66 66 66 66 65 65 65 64 64 64 64 64 64 64 64 64 64 64 64 64 64 64 64 64 64 65 65 65 65 65 65 65 65 65 65 65 65 65 65 65 66 66 64 63 62 61 61 61 60 60 59 58 57 58 57 56 57 60 61 61 61 61 61 61 61 61 61 61 61 61 61 62 62 63 63 63 63 63 63 63 63 63 63 63 63 63 64 64 64 65 65 65 65 65 66 66 66 66 66 66 65 65
64 64 64 65 66 66 65 65 65 64 64 64 64 64 64 64 64 64 64 64 64 64 64 64 65 65 65 65 65 65 65 65 65 65 65 65 65 65 65 65 65 65 65 62 61 61 60 61 61 60 60 58 57 57 57 57 57 58 61 62 62 62 61 61 61 61 61 61 61 61 61 61 62 62 63 63 63 63 62 62 63 63 63 63 63 63 63 63 64 64 64 65 65 65 65 65 66 66 66 66 66 66 66
63 63 64 65 65 65 66 65 65 65 64 64 64 64 64 65 65 65 65 65 65 65 65 65 65 65 65 66 66 66 65 64 64 64 64 65 65 65 65 65 65 64 63 61 61 60 60 60 60 60 59 58 57 57 57 56 57 60 62 63 63 62 62 62 62 62 62 62 62 62 62 62 62 63 63 63 63 63 62 62 62 63 63 63 63 63 63 63 63 63 64 64 65 65 65 65 65 65 66 66 66 66 66
62 63 64 65 65 65 66 65 65 65 65 64 64 65 65 65 65 65 65 65 65 65 65 65 65 65 65 66 66 66 64 63 62 62 62 63 64 64 65 65 65 64 62 61 61 60 60 60 60 59 58 57 57 57 57 57 59 61 63 63 63 63 62 62 63 63 63 63 63 63 63 63 63 63 63 63 63 63 63 63 62 62 63 63 63 63 63 63 63 63 63 64 64 65 65 65 65 65 65 66 66 66 66
62 64 64 65 65 65 65 65 65 65 65 65 65 65 65 65 65 65 65 65 65 65 65 65 66 66 66 66 65 64 63 62 62 61 61 61 61 62 63 63 63 63 62 61 61 60 60 60 59 59 58 57 57 57 57 57 60 62 64 64 64 63 63 63 63 63 64 64 64 64 64 64 64 64 64 64 64 64 64 63 63 63 63 63 63 63 63 63 63 63 63 64 64 64 64 65 65 65 65 65 66 66 66
61 63 64 65 65 65 65 65 65 65 65 65 65 65 65 65 65 66 66 66 66 66 66 66 66 66 66 65 64 63 62 62 61 61 61 60 59 59 60 61 61 61 61 61 60 60 60 59 59 58 57 57 57 57 57 57 60 63 64 64 64 64 63 63 64 64 64 64 64 64 64 64 64 64 64 64 64 64 64 64 64 63 63 63 63 63 63 63 63 63 63 63 64 64 64 64 64 65 65 65 65 66 66
60 60 61 62 63 64 64 64 64 64 64 65 65 65 64 64 65 65 66 66 66 66 66 66 66 65 64 63 63 62 61 61 61 60 59 58 57 57 57 58 59 59 59 59 59 58 58 58 57 57 57 57 57 57 57 58 61 63 64 64 64 64 64 64 64 64 64 64 64 65 65 65 65 65 65 65 65 65 65 65 64 64 64 63 63 63 63 63 63 63 63 63 63 63 64 64 64 64 65 65 65 65 65
58 58 59 59 60 61 61 61 61 61 62 64 64 63 63 62 62 62 63 63 63 64 64 65 64 63 62 62 61 61 60 59 59 58 57 57 57 57 57 57 57 57 57 57 57 57 57 57 57 57 57 57 57 57 57 60 62 63 64 65 65 64 64 64 64 64 64 64 65 65 65 65 65 65 65 65 65 65 65 65 65 65 65 64 64 63 63 63 63 63 63 63 63 63 63 64 64 64 64 64 64 65 65
58 58 58 58 58 58 59 59 59 59 59 62 63 62 61 60 59 59 60 59 59 59 60 60 60 60 60 59 59 58 58 57 57 57 57 57 57 57 57 57 57 57 57 57 57 57 57 57 57 57 57 57 57 57 58 61 62 63 64 65 65 64 64 64 64 64 64 64 65 65 65 65 65 65 65 65 65 65 66 66 66 66 65 65 65 64 64 64 63 63 63 63 63 63 63 63 63 64 64 64 64 64 64
59 58 58 58 58 58 58 58 58 58 58 60 60 60 59 59 58 58 58 58 58 58 58 58 58 58 58 57 57 57 57 57 57 58 57 57 57 57 57 57 57 57 57 57 57 57 57 57 57 57 57 57 57 57 58 61 62 63 64 65 65 64 64 64 64 64 64 64 65 65 65 65 65 65 65 65 65 65 66 66 66 66 66 66 66 65 65 64 64 64 63 63 63 63 63 63 63 63 63 64 64 64 64
59 59 59 59 59 59 59 59 59 59 59 59 59 59 59 59 58 58 58 58 58 58 58 58 58 58 57 57 57 57 57 57 57 57 57 57 57 57 57 57 57 57 57 57 57 57 57 57 57 57 57 57 57 57 58 60 61 63 63 64 64 64 64 64 64 64 64 64 64 65 65 65 65 65 65 65 65 65 65 66 66 66 66 66 66 66 66 65 65 65 64 64 63 63 63 63 63 63 63 63 64 64 64
59 60 59 59 59 59 59 59 59 59 59 60 60 60 59 59 59 58 58 58 58 58 58 58 58 57 57 57 57 57 57 57 57 57 57 57 57 57 57 57 57 57 57 57 57 57 57 57 57 57 57 57 57 57 58 59 61 62 63 63 64 64 64 64 64 64 64 64 64 64 65 65 65 65 65 65 65 65 65 65 66 66 66 66 66 66 66 66 66 66 65 65 64 64 63 63 63 63 63 63 63 64 64
60 60 59 59 59 59 59 59 60 60 60 60 60 60 59 59 59 59 58 58 58 58 58 58 57 57 57 57 57 57 57 57 57 57 57 57 57 57 57 57 57 57 57 57 57 57 57 57 57 57 57 57 57 57 57 59 61 61 62 63 63 64 64 64 64 64 64 64 64 64 64 65 65 65 65 65 65 65 65 65 65 66 66 66 66 66 66 66 66 66 66 66 65 64 64 64 63 63 63 63 63 63 63
60 60 59 59 59 60 60 59 60 60 60 60 60 60 59 59 59 59 59 59 58 58 58 58 58 58 58 58 58 57 57 57 57 57 57 57 57 57 57 57 56 56 56 56 56 56 56 56 57 57 56 57 57 57 57 58 60 61 61 62 62 63 64 64 64 64 64 64 64 64 64 64 64 65 65 65 65 65 65 65 65 65 65 65 66 66 66 66 67 67 67 66 66 66 65 65 64 64 63 63 63 63 63
60 60 60 60 60 60 60 60 60 60 60 60 59 59 59 59 59 59 59 59 59 58 58 58 58 58 58 58 58 57 57 57 57 57 57 57 57 57 56 56 56 55 55 55 55 55 55 55 55 55 55 56 56 56 56 57 58 60 60 61 61 62 63 64 64 64 64 64 64 64 64 64 64 64 64 64 64 64 64 64 65 65 65 65 65 65 66 66 66 67 67 67 67 66 66 66 65 65 64 64 63 63 63
60 60 60 60 60 59 59 59 60 60 60 60 60 59 59 59 59 59 59 59 59 58 58 58 58 57 57 57 57 57 58 58 58 57 57 57 57 56 56 56 55 55 55 55 55 55 55 55 55 55 55 55 55 55 56 56 57 59 60 60 61 61 62 63 63 64 64 64 64 64 64 64 64 64 64 64 64 64 64 64 64 65 65 65 65 64 65 65 65 66 66 67 67 67 67 67 66 66 66 65 64 64 63
60 60 60 60 60 60 60 60 60 60 60 60 59 59 59 59 59 59 59 58 58 58 58 57 57 57 57 57 57 57 58 58 57 57 57 57 57 56 56 56 56 55 55 55 55 55 55 55 55 55 55 55 55 55 55 56 57 58 60 60 60 61 61 62 63 63 64 63 63 63 64 64 64 64 64 64 64 64 64 64 64 64 64 64 64 64 64 64 64 65 65 66 66 66 67 67 67 67 67 66 66 65 65
60 60 60 60 60 60 60 60 60 59 60 60 59 59 59 59 59 59 58 58 58 58 57 57 57 57 57 57 57 57 57 57 57 57 57 57 56 56 56 56 56 56 55 56 55 55 55 55 55 55 55 55 55 55 55 55 56 56 58 59 60 61 61 61 62 63 63 63 63 63 63 64 64 64 64 64 64 64 64 64 64 64 64 64 64 64 64 64 64 64 64 65 65 65 66 66 67 67 67 67 67 66 66
60 60 60 60 60 60 60 59 59 59 59 59 59 59 59 59 59 58 58 58 57 57 57 57 57 57 57 57 57 57 57 57 56 56 56 56 56 56 56 56 56 56 56 56 55 55 55 55 55 54 54 54 54 55 55 55 55 55 57 58 59 60 60 61 61 62 63 63 63 63 63 63 63 63 63 63 64 64 64 64 64 64 64 64 64 64 64 64 64 64 64 64 64 64 65 65 66 66 67 67 67 67 67
60 60 60 60 60 60 59 59 59 59 59 59 59 59 59 58 58 58 57 57 57 57 57 57 56 56 56 56 56 56 56 55 55 55 55 55 55 55 55 55 55 55 55 55 54 54 54 54 53 53 53 53 53 53 53 54 54 54 55 56 57 58 60 60 61 61 62 62 63 63 63 63 63 63 63 63 63 63 64 64 64 64 64 64 64 64 64 64 64 64 64 64 64 64 64 64 65 65 66 66 66 67 67
60 60 60 60 60 59 59 59 59 59 59 59 59 58 58 57 57 57 57 57 57 57 56 56 56 56 55 55 55 54 54 54 54 54 54 53 53 53 53 53 53 53 53 53 53 52 52 52 52 52 51 51 51 51 51 52 52 52 53 56 57 57 59 60 60 61 61 62 62 63 63 63 63 63 63 63 63 63 63 63 64 64 64 64 64 64 64 64 64 64 64 64 64 64 64 64 64 64 64 65 66 66 66
60 60 60 60 59 59 59 59 59 59 58 58 58 58 57 57 57 57 57 57 57 56 56 55 55 55 55 54 54 53 53 53 52 52 52 52 52 52 52 52 52 52 52 52 52 52 52 51 50 50 49 49 48 49 49 50 50 51 52 52 54 56 57 58 59 60 61 61 61 62 63 63 63 63 63 63 63 63 63 63 63 63 64 64 64 64 64 64 64 64 64 64 64 64 64 64 64 64 64 64 65 65 65
60 60 59 59 58 58 58 58 58 58 57 57 57 57 57 57 57 57 57 56 56 55 55 55 55 55 55 53 52 52 52 51 51 51 51 51 51 51 51 51 51 51 52 52 52 51 50 49 48 47 46 46 46 47 47 48 49 49 50 51 52 52 53 53 55 57 58 60 61 61 62 62 63 63 63 63 63 63 63 63 63 63 63 63 63 64 64 64 64 64 64 64 64 64 64 64 64 64 64 64 64 64 64
60 59 59 58 58 57 57 57 57 57 56 56 56 56 56 56 56 56 56 56 55 54 54 53 53 53 52 51 50 49 48 48 48 49 49 50 50 49 49 49 50 50 50 51 50 49 48 46 45 44 43 43 44 45 46 47 48 48 49 50 50 51 51 52 52 53 54 57 59 60 61 62 63 63 63 63 63 63 63 63 63 63 63 63 63 63 63 63 63 63 63 64 64 64 64 64 64 64 64 64 64 64 64
59 58 58 57 57 56 55 55 55 55 55 55 55 55 55 55 55 55 54 53 52 52 51 49 49 49 48 48 47 47 47 46 46 47 47 47 47 47 47 47 48 48 48 48 47 46 44 43 43 42 42 42 43 43 45 46 46 47 47 48 48 49 49 50 50 51 52 53 56 58 61 61 62 62 63 63 63 63 63 63 62 62 63 63 63 63 63 63 63 63 63 63 63 64 64 64 64 64 64 64 64 64 64
57 57 56 55 54 53 52 51 52 52 52 52 53 53 53 53 52 51 49 48 48 48 47 46 46 46 45 45 45 44 44 44 44 44 44 43 43 43 43 43 43 43 43 43 43 42 42 42 41 41 41 42 42 43 43 44 44 44 44 45 46 47 47 48 49 50 50 52 53 55 58 60 61 61 62 62 63 63 63 63 62 62 62 62 63 63 63 63 63 63 63 63 63 63 64 63 63 63 63 63 64 64 64
54 53 52 52 50 49 47 48 48 50 50 51 51 51 51 49 48 45 43 43 43 44 44 44 43 43 43 43 43 43 43 43 43 42 41 40 39 39 39 40 40 40 40 40 41 41 41 41 41 41 41 42 42 42 42 42 42 42 42 43 43 44 45 47 49 49 49 50 51 52 55 58 60 60 61 61 62 62 62 62 62 62 62 62 62 62 62 63 63 63 63 63 63 63 63 63 63 63 63 63 63 63 64
50 49 48 48 47 46 45 45 46 48 48 48 48 48 48 45 43 42 41 41 42 43 43 43 42 41 41 41 42 41 41 41 40 39 39 38 37 37 37 38 38 38 38 39 39 40 41 41 41 41 41 41 41 40 40 40 40 40 40 40 41 43 45 47 48 48 48 48 48 49 51 55 57 57 58 59 60 61 61 61 62 62 62 62 62 62 62 62 63 63 63 63 63 63 63 63 63 63 63 63 63 63 63
47 46 45 45 45 44 43 44 45 46 46 46 46 45 44 43 42 41 41 41 41 42 42 42 41 40 40 40 40 39 39 38 38 38 37 36 35 35 36 36 36 37 38 39 39 40 40 41 42 42 42 40 39 39 39 39 39 39 39 40 41 42 43 44 44 44 44 44 44 44 45 48 52 54 54 54 55 57 57 59 60 61 61 62 62 62 62 62 62 62 63 63 63 63 64 63 63 63 63 63 63 63 63
45 44 43 43 43 43 43 43 44 45 45 44 43 43 42 41 40 40 40 41 42 41 41 41 41 40 39 39 39 38 37 37 36 36 36 35 35 35 35 36 36 37 38 39 39 39 39 39 41 42 42 39 39 38 38 38 39 39 39 39 40 40 41 40 40 41 41 41 41 40 41 42 45 48 50 51 52 52 53 55 57 58 60 61 61 62 62 62 62 62 62 63 63 63 64 64 64 63 63 63 63 63 63
43 43 43 42 42 42 42 43 44 44 44 43 42 41 40 40 40 40 40 41 42 41 40 40 40 39 39 39 38 37 36 36 36 36 35 34 34 35 35 36 37 37 36 36 36 37 37 38 39 39 39 38 38 38 38 39 39 38 37 37 37 38 38 38 38 38 38 38 39 39 40 40 40 41 43 45 47 48 49 51 52 54 57 58 59 60 61 61 61 61 62 62 63 63 64 64 64 64 63 63 63 63 63
41 41 41 41 41 41 41 43 43 44 43 43 41 40 39 39 39 39 39 40 40 40 39 39 39 39 38 38 37 36 36 35 35 35 34 34 35 35 36 36 36 35 34 34 34 34 34 36 36 36 36 37 37 37 37 39 38 36 33 33 34 35 35 35 35 35 35 37 38 39 39 39 38 37 38 39 40 41 44 48 50 51 53 55 56 57 58 58 59 60 61 61 61 62 63 63 64 64 64 64 63 63 63
40 40 40 40 40 40 40 42 43 44 43 42 41 39 39 39 39 39 39 39 39 39 39 38 37 37 37 38 37 36 35 34 34 34 34 34 35 36 37 35 34 33 32 32 32 32 34 34 34 34 34 36 35 34 33 34 34 32 31 31 32 33 33 34 34 34 34 36 37 37 37 37 35 35 35 36 37 38 39 43 47 50 51 52 53 54 55 55 56 57 57 58 60 61 61 62 63 63 63 63 63 63 63
39 39 39 39 39 39 39 41 42 43 43 41 40 39 39 38 38 37 37 38 38 38 38 38 37 36 35 35 35 35 34 33 32 33 33 34 34 35 34 33 32 31 31 31 31 31 34 32 31 32 34 33 31 30 30 30 31 30 30 31 31 31 31 32 32 32 34 35 35 35 34 34 34 33 34 34 35 35 37 39 43 47 49 50 51 52 52 53 53 54 54 55 56 57 57 58 59 60 61 61 62 62 63
39 39 38 39 39 39 39 39 41 42 41 40 39 38 38 37 37 37 36 37 37 37 37 37 36 35 34 34 34 34 33 31 31 32 34 33 33 32 31 31 30 30 30 31 31 32 33 30 30 31 31 29 28 28 28 29 30 30 30 31 31 30 30 31 31 32 33 33 33 33 32 32 32 32 32 33 34 34 34 35 37 39 44 47 48 49 51 51 52 52 52 52 53 54 54 55 55 56 57 57 58 59 60
37 36 36 37 38 38 38 38 39 40 40 39 39 38 38 38 38 37 35 34 34 34 35 35 35 34 34 33 33 32 32 31 31 32 34 32 31 30 29 30 30 30 30 30 30 30 30 29 29 29 27 27 27 28 28 29 29 30 30 30 30 30 30 30 30 31 32 31 31 31 32 32 31 31 31 32 32 32 32 33 33 34 38 39 42 44 46 48 50 50 51 52 52 53 53 53 53 53 53 54 54 54 56
35 35 35 35 36 37 37 37 38 39 39 39 38 37 38 37 36 35 33 33 33 33 34 34 34 34 34 33 32 32 31 31 31 32 32 31 31 30 30 30 30 29 28 27 28 29 29 28 26 26 25 26 27 27 28 29 29 29 30 30 30 30 29 30 30 30 30 30 30 30 30 30 30 31 31 30 30 30 30 30 31 32 33 33 34 36 39 41 45 48 50 51 52 52 52 53 53 53 53 53 53 53 54
34 34 34 34 35 36 37 37 36 37 37 37 37 36 36 34 33 33 33 32 32 32 33 33 33 33 34 33 33 31 30 31 32 32 32 31 31 32 32 32 30 27 25 24 25 25 27 26 26 25 25 25 25 27 28 29 29 29 30 30 29 29 29 30 30 30 30 29 28 28 28 29 29 30 30 30 29 29 29 30 30 30 30 31 33 35 37 39 42 45 48 50 51 52 52 52 52 53 53 53 53 53 53
33 33 33 33 34 35 36 36 35 35 35 36 36 35 35 34 32 32 32 32 31 31 32 33 32 32 32 33 32 31 32 32 32 33 33 32 31 32 32 31 29 27 25 22 21 21 22 23 24 25 25 25 26 27 28 28 29 29 30 28 28 28 29 30 30 30 29 27 27 26 27 27 28 29 29 28 28 29 29 29 29 30 30 31 33 34 35 39 42 44 46 48 49 51 51 52 52 52 52 53 53 53 53
32 32 31 32 33 34 34 34 34 34 34 35 36 35 34 32 31 30 30 30 30 30 31 32 32 31 31 32 32 32 33 34 33 33 33 33 33 32 31 30 30 28 25 22 19 18 19 21 21 23 25 26 27 27 27 28 27 27 28 27 28 29 28 28 28 28 26 25 25 25 25 26 27 27 27 27 27 28 28 29 29 30 30 31 32 33 34 37 41 43 44 45 46 47 49 50 51 52 52 53 53 54 55
31 30 31 31 32 33 33 32 33 33 34 34 35 34 33 31 30 30 30 29 29 30 30 30 31 32 32 32 32 32 32 34 33 33 32 33 33 33 32 31 29 27 23 21 19 18 19 21 22 22 23 25 25 25 26 26 27 27 29 29 27 26 26 26 25 25 25 25 25 25 25 25 26 26 25 26 26 27 28 29 29 30 30 31 32 34 35 39 40 41 41 42 43 45 46 49 51 51 52 53 54 56 57
30 30 29 30 31 31 32 32 31 32 33 34 34 34 32 31 30 30 28 29 29 29 29 30 30 31 32 32 32 33 33 33 33 33 34 33 33 34 33 31 28 24 21 20 19 20 21 22 22 21 21 23 24 24 24 25 25 26 28 27 25 25 24 24 24 23 23 23 24 24 24 25 25 25 25 25 26 27 28 29 29 29 30 30 31 33 33 35 35 36 38 39 40 43 44 48 50 51 53 55 56 57 58
30 29 27 28 29 30 31 31 31 31 32 33 34 34 32 31 30 29 27 27 27 28 29 30 30 30 32 33 33 33 33 32 33 34 35 33 32 32 31 30 29 27 25 23 22 22 23 24 23 21 20 22 23 23 24 24 24 24 25 25 24 23 23 22 22 22 22 22 22 22 23 24 25 25 25 26 26 26 27 27 28 28 29 30 30 30 31 32 33 34 35 36 37 39 43 46 49 52 54 55 56 57 57
30 29 27 27 28 29 30 30 30 30 31 33 33 32 31 30 29 28 27 26 26 27 28 29 30 30 32 33 34 33 32 32 32 33 34 33 31 30 29 30 30 30 30 28 27 25 25 24 23 21 20 21 21 23 23 22 22 22 22 22 22 22 21 21 21 21 21 21 21 21 21 23 24 24 25 25 25 25 25 26 27 28 29 30 30 30 30 31 33 34 33 35 36 39 43 48 51 52 53 53 53 53 54
29 29 28 28 28 29 29 30 30 30 30 32 32 31 30 28 27 27 26 25 25 27 28 28 28 30 32 33 33 32 31 32 32 32 31 30 30 29 28 28 29 29 29 29 28 27 26 25 23 22 21 20 19 20 22 21 20 20 20 20 21 21 21 20 20 20 21 21 21 21 21 22 23 24 24 24 24 25 25 26 27 28 29 29 28 28 30 32 34 34 36 38 40 42 45 48 50 51 51 51 51 51 52
29 29 28 27 27 27 28 28 29 29 30 31 31 30 29 27 27 26 25 24 25 28 28 27 28 30 32 32 32 31 31 32 32 32 30 28 27 28 29 28 27 27 27 27 26 26 27 26 25 24 23 21 19 18 17 18 19 18 19 19 19 19 20 19 20 21 21 21 21 21 21 21 22 23 23 23 23 24 24 26 26 27 28 27 26 26 27 27 29 31 34 36 39 43 48 48 49 49 49 49 50 50 51
28 29 30 28 27 26 27 27 27 28 29 31 30 29 28 27 26 25 25 24 25 25 26 26 27 29 31 31 31 31 32 32 32 31 30 27 26 27 28 27 26 25 26 25 25 25 26 26 26 25 25 23 21 18 16 16 16 17 17 18 18 19 19 19 20 20 20 21 21 21 21 21 21 21 21 22 23 23 23 24 25 25 25 25 24 25 25 25 25 27 29 31 37 43 48 48 48 48 48 48 49 50 51